全球星 M055星 (GLOBALSTAR M055)

导读 | 豆包AI

GLOBALSTAR M055是全球星(Globalstar)系统的低轨通信卫星,于1999年9月22日发射入轨。全球星星座专为无地面网络覆盖的海洋、沙漠等偏远区域提供通信服务,支撑应急救援、野外探险、科考等场景的通话、信息传输。GLOBALSTAR M055运行在近地轨道,作为第一代全球星卫星的一员,它和同星座卫星共同组网,为全球用户提供不间断的卫星移动通信连接,填补了地面通信网络的覆盖盲区。

Basic Information
目录编号:
25910
目录名称:
GLOBALSTAR M055
国际标识:
1999-049D
轨道中心:
EARTH
卫星名称:
全球星 M055星
卫星全名:
全球星 M055星 (GLOBALSTAR M055)
卫星状态:
在轨 (已飞行9670 天)
发射日期:
1999-09-22 UTC
国别 :
(GLOB)
星等 :
--
Orbit Information
数据来源 国际轨道数据 AOE轨道数据
星历时间 2026-03-14T06:17:47+0800
15小时前
查看轨道信息
2026-03-14T16:00:00+0800
5小时前
查看轨道信息
半长轴 7929.818km 7929.821km
偏心率 0.0006731 0.0007011
轨道倾角 52.003° 52.003°
近地点辐角 339.237° 340.472°
升交点赤经 307.224° 306.068°
平近点角 20.821° 9.953°
近地点 1546.343km 1546.124km
远地点 1557.019km 1557.244km
周期 117.126分钟 117.126分钟
每日圈数 12.294417 12.29441
Detailed Information
固有亮度:
5
最大亮度:
7.9
平衡模式:
三轴稳定
覆盖范围:
全球
运营商:
全球星公司
运营商所在国:
美国
使用方式:
暂无
Satellite Introduction
全球星星座由48颗卫星加8颗备份星组成。这些卫星分布在8个倾角为52度的圆形轨道平面上,每个轨道平面6颗卫星,另有1 颗备用星。轨道高度约为1414km,传输时延和处理时延小于300ms,整个系统的覆盖区为南北纬70度以内的地区。该卫星已退役。
2D Orbit Map
3D Orbit Map
Orbit Altitude Analysis Chart
Orbit Inclination Analysis Chart
Orbit Comprehensive Analysis Chart
View Comprehensive Chart